Regional Weather Roundup
Issued by NWS Cleveland, OH

Home | Current Version | Previous Version | Graphics & Text | Print | Product List | Glossary On
Versions: 1 2 3 4 5 6 7 8 9 10 11 12 13 14 15 16 17 18 19 20 21 22 23 24 25 26 27 28 29 30 31 32 33 34 35 36 37 38 39 40 41 42 43 44 45 46 47 48 49 50
000
ASUS41 KCLE 260710
RWRCLE
OHIO REGIONAL WEATHER ROUNDUP
NATIONAL WEATHER SERVICE CLEVELAND, OH
300 AM EDT SUN APR 26 2015

NOTE: "FAIR" INDICATES FEW OR NO CLOUDS BELOW 12,000 FEET WITH NO
SIGNIFICANT WEATHER AND/OR OBSTRUCTIONS TO VISIBILITY.

OHZ001>008-015>018-024>027-034-035-043-044-260800-
   NORTHWEST OHIO

CITY           SKY/WX    TMP DP  RH WIND       PRES   REMARKS
DEFIANCE       PTCLDY    39  29  67 NE9       29.82S
FINDLAY        CLOUDY    41  33  73 N13       29.78F
TOLEDO EXPRESS PTCLDY    39  26  59 N7        29.81S
TOLEDO EXEC    PTCLDY    42  29  59 NE8       29.82S
LIMA           CLOUDY    40  33  76 N16       29.76F
$$

OHZ009>014-019>023-028>033-038-089-260800-
   NORTHEAST OHIO

CITY           SKY/WX    TMP DP  RH WIND       PRES   REMARKS
CLE-HOPKINS    MOCLDY    40  33  76 N9        29.80R
CLE-LAKEFRONT  PTCLDY    42  33  70 NE10      29.77S
CUY CO. ARPT   NOT AVBL
LORAIN-ELYRIA  MOCLDY    39  32  76 NE10      29.78R
ASHTABULA      CLEAR     35  29  78 VRB3      29.77S
AKRON-CANTON   CLOUDY    43  25  49 NE12      29.72S
WOOSTER        CLOUDY    38  31  76 N9        29.74R
MANSFIELD      CLOUDY    38  29  70 N9        29.74S
YOUNGSTOWN     MOCLDY    39  26  59 N7        29.72S
$$

OHZ042-051>053-060>062-070>072-077>081-260800-
  SOUTHWEST OHIO

CITY           SKY/WX    TMP DP  RH WIND       PRES   REMARKS
CINC-COVINGTON CLOUDY    45  40  82 N13       29.71R
CINC-LUNKEN    CLOUDY    45  40  82 N8        29.73R
HAMILTON       CLOUDY    45  36  70 NE9       29.73S
DAYTON         CLOUDY    41  30  65 N13       29.75S
WRIGHT-PAT AFB CLOUDY    42  30  62 N8        29.73S
DAYTON GENERAL CLOUDY    41  28  60 N13       29.72R
WILMINGTON     CLOUDY    41  32  70 N14       29.70R
$$

OHZ036-037-039>041-045>050-054>059-063>069-073>076-082>088-260800-
  CENTRAL AND SOUTHEAST OHIO

CITY           SKY/WX    TMP DP  RH WIND       PRES   REMARKS
COLUMBUS       CLOUDY    41  32  70 N9        29.71S
OSU AIRPORT    CLOUDY    41  31  67 N12       29.72F
BOLTON FIELD   CLOUDY    41  32  70 N10       29.72S
RICKENBACK AFB CLOUDY    42  32  68 N10       29.71S
NEWARK         CLOUDY    43  31  62 N7        29.70S
MARION         CLOUDY    39  31  72 NE13      29.74F
LANCASTER      CLOUDY    43  33  68 N9        29.70S
ZANESVILLE     CLOUDY    42  34  73 N7        29.69S
NEW PHILLY     CLOUDY    45  28  51 N3        29.71S
$$


USA.gov is the U.S. government's official web portal to all federal, state and local government web resources and services.